RH
6 5 5 5 4 4 4 4 5 7 8 9 8 7 7 6 5 5 5 5 4 5 4 4 5 5 6 6 5 5 6 7 8 7 8 8 8 9 9 9 8 7
6 6 6 6 5 5 5 4 4 6 8 10 10 8 7 7 6 6 5 5 5 5 5 5 5 6 6 6 5 6 6 7 8 8 8 8 9 9 9 9 8 7
6 6 6 6 6 6 6 6 5 5 6 9 11 11 9 8 7 7 6 6 6 5 5 5 6 6 6 6 6 6 6 7 8 8 9 9 9 10 9 8 7 6
6 6 6 6 7 7 7 8 7 6 6 7 11 12 12 10 9 8 7 6 6 6 6 6 6 6 7 7 6 6 7 7 8 8 9 9 9 9 8 8 7 6
6 6 6 6 7 7 8 9 8 8 8 7 9 12 14 13 11 10 9 7 7 7 7 6 6 7 7 7 7 7 7 8 8 9 10 9 9 9 8 7 6 7
6 6 6 5 6 7 8 9 9 9 10 9 8 10 13 15 15 12 10 9 8 7 7 7 6 6 7 7 6 7 8 8 9 10 10 9 9 8 8 7 6 6
5 5 5 5 6 6 8 9 9 10 10 11 10 10 11 14 16 15 12 10 9 8 8 7 7 6 7 7 7 7 8 8 9 10 10 9 9 8 7 7 6 6
5 5 5 5 5 6 6 7 8 9 10 11 11 11 11 13 14 15 14 11 9 9 8 7 7 7 7 7 7 7 8 9 10 11 10 9 9 8 7 7 6 6
4 4 5 5 5 5 5 6 6 8 9 10 11 11 11 12 13 14 15 13 11 9 8 8 8 8 7 7 7 8 8 9 10 10 10 10 9 8 7 7 6 6
4 4 4 4 5 5 5 5 5 6 8 9 10 11 11 11 12 13 14 14 13 11 9 9 9 8 7 7 7 8 9 10 10 10 10 10 9 8 7 7 7 6
4 4 4 4 4 4 4 4 5 5 6 8 9 10 10 10 11 13 13 14 13 12 10 10 9 8 8 8 8 8 9 10 10 10 10 10 9 8 8 7 7 7
4 3 3 3 3 4 4 4 4 5 6 7 8 9 9 10 11 12 12 13 13 12 11 11 10 9 9 9 8 9 10 11 10 9 10 9 8 8 8 7 7 7
4 3 3 3 3 3 3 4 4 4 5 6 7 8 9 9 10 11 11 12 12 12 11 11 10 10 10 10 9 10 11 11 10 10 10 9 8 8 8 8 8 8
3 3 3 3 3 3 3 3 4 4 5 5 6 8 8 9 9 9 10 10 11 11 11 10 10 11 11 10 10 10 11 12 11 10 10 9 8 8 8 8 8 9
3 3 3 3 3 3 3 3 3 4 4 5 6 7 7 8 8 8 9 9 9 10 10 10 10 11 11 10 10 11 12 12 11 11 11 10 8 8 8 8 9 9
3 3 3 3 3 2 3 3 3 3 4 4 5 6 6 7 7 8 8 8 9 9 9 10 10 10 10 10 11 12 12 13 12 11 11 10 8 8 8 9 9 9
2 2 2 3 3 2 2 3 3 3 4 4 5 5 6 6 7 7 7 7 8 8 8 10 9 9 10 10 11 12 13 13 12 11 11 9 8 8 8 9 9 9
2 2 2 2 3 3 2 3 3 3 3 4 5 4 5 6 6 6 7 7 7 7 8 9 9 9 9 9 10 12 12 13 12 12 11 9 8 9 9 9 10 10
1 2 2 2 2 2 2 3 2 3 3 3 4 4 4 5 5 6 6 6 7 7 8 9 9 9 9 9 10 12 12 12 12 11 10 8 8 9 10 10 10 10
1 2 2 2 2 2 2 3 2 3 3 3 4 4 4 4 5 5 6 6 7 7 7 8 9 9 9 9 10 11 12 12 12 10 8 8 9 10 10 10 10 9
1 2 2 2 2 2 2 2 2 2 3 3 4 4 3 4 4 5 5 6 6 7 7 8 8 8 9 10 11 11 12 12 12 9 8 8 9 10 10 10 9 8
2 2 2 2 2 2 2 2 2 2 3 3 4 3 3 3 4 4 5 5 6 6 7 8 8 8 9 10 11 11 12 12 11 9 8 8 9 10 10 10 9 8
2 1 2 2 2 2 2 2 2 2 3 3 4 3 3 3 4 4 4 5 5 6 7 8 8 8 8 10 11 11 12 11 10 9 8 8 9 10 10 9 8 7
2 1 2 2 2 2 2 2 2 2 3 3 3 3 3 3 4 4 4 5 5 6 7 7 8 8 8 9 10 11 11 10 9 8 8 9 10 10 10 9 8 7
1 2 2 2 2 2 2 2 2 2 2 3 3 2 2 3 3 3 4 4 5 6 6 7 7 8 8 10 10 11 11 10 8 8 8 9 10 10 10 9 7 6
1 2 2 2 2 2 2 2 2 2 2 3 2 2 2 3 3 3 4 4 5 6 6 6 7 7 8 9 10 10 10 9 8 8 8 9 10 10 9 9 7 6
Wind_Speed
89 89 87 85 83 81 80 78 76 77 79 82 83 84 86 87 88 88 87 86 85 84 83 82 81 81 81 80 79 77 76 75 75 75 75 75 75 75 75 75 76 75
85 85 85 83 81 80 79 78 76 74 74 77 80 81 83 84 85 85 85 84 83 82 82 81 80 80 80 79 78 77 75 74 74 74 73 73 72 72 73 73 73 72
83 82 82 82 80 79 78 78 77 74 72 72 76 79 80 81 82 83 83 83 82 81 81 80 79 79 79 79 78 76 73 72 72 71 71 71 70 70 71 71 71 69
83 81 81 80 79 78 77 76 76 76 73 71 71 75 78 80 81 82 82 82 81 80 80 79 78 78 77 77 77 75 73 71 70 69 69 68 67 68 69 68 67 66
83 81 79 78 78 77 76 76 75 76 75 73 70 70 75 78 79 80 81 81 80 79 79 78 77 76 76 76 75 73 71 70 68 66 66 65 65 66 66 66 65 64
83 80 78 77 76 75 74 75 75 74 75 75 72 69 71 74 77 79 80 80 80 79 78 78 77 76 74 74 73 71 69 67 65 64 64 63 63 64 64 63 63 62
82 79 78 77 75 73 72 73 73 74 74 75 74 72 70 71 74 78 80 79 79 78 78 78 77 75 73 72 71 68 66 64 62 61 61 61 61 62 62 61 60 60
80 79 78 78 76 73 72 71 70 71 73 73 74 73 72 71 72 76 79 80 79 78 78 77 76 74 72 71 69 66 64 61 59 59 60 60 61 61 61 60 59 58
80 79 79 78 77 74 72 70 69 68 70 71 72 73 73 73 72 73 77 81 80 78 77 76 75 73 72 70 67 64 61 59 58 58 58 59 60 60 59 59 58 57
82 80 79 78 76 74 72 70 68 67 67 68 70 72 72 73 72 72 75 79 80 79 77 76 74 73 71 69 66 62 60 58 57 57 57 59 60 59 58 58 57 56
84 81 79 77 75 74 73 70 67 66 66 67 68 70 72 72 72 72 74 77 79 79 77 75 74 72 70 68 64 61 59 58 57 56 57 58 59 58 58 57 56 55
85 82 79 77 75 73 72 69 66 65 65 66 67 69 71 72 72 72 73 75 78 78 77 75 73 71 70 67 64 61 59 59 58 56 57 58 58 57 57 56 55 54
84 82 79 76 75 73 71 68 66 65 64 64 66 68 70 72 72 72 74 75 76 77 76 74 73 71 69 67 64 61 59 59 58 57 58 58 57 57 56 55 54 54
82 81 79 76 75 74 72 69 66 64 64 64 65 68 70 72 72 72 74 75 76 76 75 73 71 70 68 66 64 62 59 59 59 58 58 59 58 56 55 54 53 53
77 78 78 77 76 75 73 70 66 64 64 64 65 68 71 72 73 73 74 75 75 75 73 72 70 68 67 66 64 61 60 59 59 58 58 59 58 56 55 53 52 52
72 73 75 76 76 75 73 71 68 65 65 65 66 69 71 73 74 74 74 74 74 74 72 70 69 68 66 65 62 60 59 59 59 58 58 58 58 56 54 52 51 51
69 70 71 73 75 74 72 70 69 66 66 67 68 69 71 72 74 74 74 73 73 72 70 69 68 67 65 63 61 60 59 58 58 58 57 57 57 56 53 51 50 51
65 65 67 70 72 73 71 69 68 67 66 67 70 71 70 71 73 74 73 72 72 70 69 68 67 66 65 63 60 59 58 57 57 57 57 57 56 55 53 51 50 51
62 62 63 66 68 70 69 68 67 66 66 66 69 71 71 71 72 73 72 71 71 69 67 66 66 65 64 62 60 58 57 56 57 57 57 56 55 53 51 50 50 51
60 59 60 61 63 65 66 67 66 65 64 64 68 71 71 70 71 70 70 70 70 68 66 64 64 64 64 62 59 58 57 56 58 57 56 54 53 51 50 49 50 51
58 58 58 59 60 61 63 64 64 62 60 61 66 71 70 69 68 68 68 68 68 67 65 63 63 62 62 61 59 58 57 57 58 58 55 52 50 49 48 49 49 51
56 56 57 58 58 58 60 62 61 59 58 59 65 70 68 66 66 66 66 66 66 65 63 62 62 60 60 59 59 58 58 58 58 57 55 51 48 47 47 48 48 50
55 55 55 56 56 56 58 60 59 57 56 58 64 68 66 64 64 64 64 64 63 62 61 61 61 59 58 58 58 57 58 59 58 56 54 50 47 46 46 46 48 49
53 53 53 54 54 55 57 58 57 56 57 59 64 67 64 61 62 62 62 61 61 60 60 60 60 58 57 56 56 57 58 59 57 54 52 49 47 46 45 45 48 48
51 51 51 52 52 53 55 56 56 55 56 60 64 64 61 59 60 60 59 59 58 58 58 58 58 57 55 55 56 56 57 58 55 52 50 47 46 44 43 45 48 46
48 48 49 50 51 52 53 54 54 54 55 59 63 62 59 58 58 58 57 57 56 56 57 57 57 55 54 54 55 55 56 56 53 50 47 46 44 42 41 45 47 44
Wind_Direction
283 283 283 284 283 283 282 282 283 285 285 285 283 281 280 280 280 280 280 279 279 279 279 280 280 280 282 283 285 286 286 286 287 287 288 288 288 289 288 288 288 289
283 284 285 286 286 286 286 285 284 284 286 286 285 283 282 281 281 280 280 280 280 279 279 280 280 281 282 284 285 286 286 286 287 287 288 288 288 288 288 288 288 289
284 284 285 286 287 287 288 287 286 285 284 285 285 284 283 282 282 281 280 280 280 280 280 280 280 281 282 283 285 286 286 286 287 288 288 288 288 287 287 288 289 290
286 285 285 286 287 287 288 288 288 286 285 284 284 285 284 283 282 281 280 280 280 279 280 280 280 281 282 283 285 286 287 287 287 288 287 287 287 287 288 289 290 292
286 285 285 284 285 286 287 287 287 287 286 284 283 283 283 282 281 281 280 280 280 279 279 280 280 281 281 282 284 285 286 286 287 286 285 286 286 287 288 290 291 292
286 284 283 282 283 283 285 285 285 285 285 284 283 282 281 281 281 280 280 280 280 280 280 280 280 281 281 282 283 284 285 285 285 285 284 285 286 287 289 291 292 294
285 283 282 281 280 281 281 282 282 283 283 283 283 282 281 280 280 280 280 280 280 280 280 280 281 281 281 282 282 283 284 284 284 283 284 285 286 288 290 292 294 295
284 282 281 280 279 278 278 278 278 280 281 281 282 282 281 280 279 279 280 281 280 280 280 281 281 282 282 282 282 283 283 283 282 282 284 286 286 288 290 293 295 297
283 281 280 279 278 277 276 275 275 276 277 278 279 279 279 279 278 278 279 280 280 280 280 280 281 281 282 282 282 283 282 282 282 282 284 285 287 289 292 294 297 299
282 280 278 277 276 275 274 273 273 273 274 275 276 276 276 276 276 276 276 277 279 280 280 280 281 281 282 282 283 283 283 282 282 283 284 285 287 290 293 295 298 300
280 279 277 276 275 274 273 272 271 271 271 272 272 273 273 273 274 274 274 275 276 278 279 280 281 281 282 282 283 284 283 283 283 284 284 286 288 291 294 296 299 302
278 278 277 276 275 273 271 270 269 269 269 270 270 270 271 271 271 271 272 273 274 276 277 278 279 281 281 283 284 284 284 283 284 285 286 287 290 292 295 298 301 303
277 277 277 276 275 273 271 269 268 267 267 268 269 269 269 269 270 270 270 271 272 274 275 277 278 279 280 282 283 284 284 284 285 286 287 288 291 294 297 300 302 303
275 276 277 276 275 274 271 269 267 267 267 267 267 268 268 268 268 268 269 270 271 272 274 275 276 278 279 281 282 283 284 284 285 286 287 289 292 295 298 301 302 303
273 274 275 275 275 274 272 271 269 268 267 266 265 265 266 266 267 267 268 269 270 271 273 274 275 276 277 279 281 283 283 284 285 286 287 290 293 296 298 301 302 302
271 271 272 272 273 273 272 272 270 269 267 265 263 263 263 264 265 266 266 267 269 270 271 273 274 275 276 278 280 281 282 283 284 286 288 290 293 296 298 300 301 301
269 269 269 270 270 271 271 271 270 269 267 265 263 262 261 262 263 264 265 266 268 269 270 272 273 275 276 278 279 280 281 282 284 286 289 291 293 296 299 300 300 299
270 268 267 267 268 269 270 269 269 267 266 264 264 262 261 260 261 263 264 266 267 268 270 271 272 274 276 278 278 279 280 282 284 286 289 291 293 296 298 299 299 297
271 268 266 266 267 268 268 268 266 265 263 262 262 262 261 259 260 261 263 264 266 267 268 270 271 273 275 277 279 279 281 282 284 286 288 291 294 296 297 298 298 295
273 271 268 267 266 266 266 265 264 263 262 261 261 261 260 259 259 261 262 263 265 266 268 269 270 272 275 277 279 280 282 283 284 286 289 291 294 296 296 297 296 293
276 274 271 269 267 265 264 264 264 263 262 260 260 260 261 260 260 261 262 263 264 266 267 268 270 271 274 276 279 280 282 283 284 287 290 292 294 296 296 295 294 292
277 275 273 270 268 266 265 264 264 264 262 260 259 261 261 261 261 261 262 263 264 265 266 268 270 272 273 275 277 279 281 282 283 286 290 292 295 295 294 293 292 291
278 275 272 270 268 266 264 264 264 263 261 258 258 260 261 260 260 261 262 263 263 264 265 267 269 271 272 273 275 276 278 280 283 286 289 293 295 294 293 292 291 290
276 274 272 270 268 265 263 263 262 260 258 257 258 260 262 261 261 261 262 263 263 264 264 265 267 270 271 272 273 274 276 279 283 286 289 293 295 293 292 291 289 289
276 274 272 270 268 265 263 262 261 259 257 257 259 261 262 262 261 261 262 262 262 263 264 265 266 269 270 271 271 272 274 278 282 286 290 292 293 292 291 289 287 288
278 275 272 270 269 267 265 264 263 261 258 258 260 263 263 262 261 261 262 262 262 262 263 264 266 268 269 269 270 271 274 278 282 287 290 291 292 291 290 287 286 289